Zurück zum Katalog

COSMOS 2071

AktivMilitärLEO
NORAD 20556·PAYLOAD·🇷🇺 Russia

Gestartet Apr 6, 1990 von Plesetsk Cosmodrome

Loading…

Nächste Überflüge (nächste 24 Stunden)

TLE

AktuellSource: Space-Track

Epoche: Sep 14, 2026, 01:31 UTC

1 20556U 90029H   26257.06329164  .00000005  00000-0  13551-3 0  9994
2 20556  73.9801 123.2542 0003274 286.2650 226.8037 12.50944082664045

Verfolge COSMOS 2071 in Echtzeit mit AllMySat

Download on the App Store